(109327) = 2001 QU140

Discovered at Socorro on 2001-08-22 by LINEAR.

Orbit

Orbit type: Main Belt

Note: WebGL enabled browser required.

epoch2024-03-31.0
epoch JD2460400.5
perihelion date2021-11-18.12611
perihelion JD2459536.62612
argument of perihelion (°)92.52227
ascending node (°)248.37183
inclination (°)10.07189
eccentricity0.1574832
perihelion distance (AU)2.5133629
Tisserand w.r.t. Jupiter3.2
ΔV w.r.t. Earth (km/sec)10.4
semimajor axis (AU)2.9831606
mean anomaly (°)165.24915
mean daily motion (°/day)0.19128850
aphelion distance (AU)3.453
period (years)5.15
P-vector [x]0.93060320
P-vector [y]-0.36459674
P-vector [z]0.03235587
Q-vector [x]0.32794565
Q-vector [y]0.86977479
Q-vector [z]0.36870512
absolute magnitude14.59
phase slope0.15
uncertainty0
referenceMPEC 2024-E179
observations used1283
oppositions20
arc length (days)11773
first opposition used1991
last opposition used2024
residual rms (arc-secs)0.68
perturbers coarse indicatorM-v
perturbers precise indicator003Ek
first observation date used1991-12-08.0
last observation date used2024-03-02.0
computer nameMPCLINUX
JD of orbit computation2456760.750473
perihelion JD uncertainty (days)1.3828E-04
argument of perihelion uncertainty (°)5.2660E-05
ascending node uncertainty (°)4.3808E-05
inclination uncertainty (°)7.9869E-06
eccentricity uncertainty 8.1737E-08
perihelion distance uncertainty (AU)2.5970E-07
Minimum Orbit Intersection Distances (in AU)
for orbit epoch: 2460400.5, reference: E2024-FB1
Mercury2.13769
Venus1.81359
Earth1.53053
Mars1.19201
Jupiter2.03979
Saturn5.84724
Uranus15.0622
Neptune26.9041

Observations

1324 total observations over interval: 1991 12 08.29119 – 2024 03 02.452293
These data are available for download (format description).

Date (UT) J2000 RA J2000 Dec Magn Location Ref
1991 12 08.29119 04 27 40.15 +21 17 10.8 18.7 V 691 – Steward Observatory, Kitt Peak-Spacewatch MPS 82659
1991 12 08.31302 04 27 38.94 +21 17 03.7   691 – Steward Observatory, Kitt Peak-Spacewatch MPS 82659
1991 12 08.33512 04 27 37.75 +21 16 57.0   691 – Steward Observatory, Kitt Peak-Spacewatch MPS 82659
2001 07 28.38370 02 06 03.11 +22 16 48.4 19.3 R 699 – Lowell Observatory-LONEOS MPS 34738
2001 07 28.40565 02 06 04.34 +22 16 56.2   699 – Lowell Observatory-LONEOS MPS 34738
2001 07 28.42763 02 06 05.66 +22 17 05.1   699 – Lowell Observatory-LONEOS MPS 34738
2001 07 28.44961 02 06 06.99 +22 17 14.6   699 – Lowell Observatory-LONEOS MPS 34738
2001 08 22.43566 02 24 45.77 +24 18 53.7 19.2   704 – Lincoln Laboratory ETS, New Mexico MPS 33684
2001 08 22.44976 02 24 46.20 +24 18 56.0 19.4   704 – Lincoln Laboratory ETS, New Mexico MPS 33685
2001 08 22.46308 02 24 46.59 +24 19 00.0 19.0   704 – Lincoln Laboratory ETS, New Mexico MPS 33685
2001 08 25.40129 02 26 06.93 +24 28 30.6 18.7   704 – Lincoln Laboratory ETS, New Mexico MPS 33685
2001 08 25.41408 02 26 07.27 +24 28 33.0 19.3   704 – Lincoln Laboratory ETS, New Mexico MPS 33685
2001 08 25.43961 02 26 07.82 +24 28 37.9 19.9   704 – Lincoln Laboratory ETS, New Mexico MPS 33685
2001 08 25.45239 02 26 08.16 +24 28 39.3 19.1   704 – Lincoln Laboratory ETS, New Mexico MPS 33685
2001 09 19.44400 02 28 38.50 +24 57 46.7 18.5   644 – Palomar Mountain/NEAT MPS 36044
2001 09 19.46796 02 28 38.16 +24 57 44.7 19.0   644 – Palomar Mountain/NEAT MPS 36044
2001 09 19.49051 02 28 37.85 +24 57 42.9 19.4   644 – Palomar Mountain/NEAT MPS 36044
2001 09 21.32753 02 28 09.63 +24 55 39.0 18.6 R 699 – Lowell Observatory-LONEOS MPS 36044
2001 09 21.35094 02 28 09.21 +24 55 37.1   699 – Lowell Observatory-LONEOS MPS 36044
2001 09 21.37438 02 28 08.76 +24 55 35.2   699 – Lowell Observatory-LONEOS MPS 36044
2001 09 21.39789 02 28 08.31 +24 55 33.1   699 – Lowell Observatory-LONEOS MPS 36044
2001 09 22.31837 02 27 52.20 +24 54 16.3 18.8 R 699 – Lowell Observatory-LONEOS MPS 36044
2001 09 22.34805 02 27 51.60 +24 54 13.6   699 – Lowell Observatory-LONEOS MPS 36044
2001 09 22.37778 02 27 51.03 +24 54 10.7   699 – Lowell Observatory-LONEOS MPS 36044
2001 09 22.40758 02 27 50.43 +24 54 08.8   699 – Lowell Observatory-LONEOS MPS 36044
2001 09 25.33476 02 26 49.57 +24 48 53.6 19.1   704 – Lincoln Laboratory ETS, New Mexico MPS 49382
2001 09 25.34977 02 26 49.16 +24 48 50.9 19.7   704 – Lincoln Laboratory ETS, New Mexico MPS 49382
2001 09 25.36475 02 26 48.83 +24 48 50.3 19.6   704 – Lincoln Laboratory ETS, New Mexico MPS 49382
2001 09 25.37972 02 26 48.37 +24 48 47.2 19.8   704 – Lincoln Laboratory ETS, New Mexico MPS 49382
2001 09 25.39470 02 26 47.99 +24 48 45.5 20.0   704 – Lincoln Laboratory ETS, New Mexico MPS 49382
2001 10 13.29748 02 16 27.83 +23 40 10.2 18.0 R 699 – Lowell Observatory-LONEOS MPS 39265
2001 10 13.32178 02 16 26.73 +23 40 01.3   699 – Lowell Observatory-LONEOS MPS 39265
2001 10 13.34608 02 16 25.58 +23 39 53.6   699 – Lowell Observatory-LONEOS MPS 39265
2001 10 13.37653 02 16 24.16 +23 39 43.7   699 – Lowell Observatory-LONEOS MPS 39265
2001 10 17.23842 02 13 28.81 +23 16 58.7 18.3   704 – Lincoln Laboratory ETS, New Mexico MPS 39265
2001 10 17.25453 02 13 28.04 +23 16 53.1 18.6   704 – Lincoln Laboratory ETS, New Mexico MPS 39265
2001 10 17.27054 02 13 27.26 +23 16 46.8 19.3   704 – Lincoln Laboratory ETS, New Mexico MPS 39265
2001 10 17.28652 02 13 26.49 +23 16 41.3 18.5   704 – Lincoln Laboratory ETS, New Mexico MPS 39265
2001 10 17.30246 02 13 25.72 +23 16 35.3 18.6   704 – Lincoln Laboratory ETS, New Mexico MPS 39265
2001 10 18.24910 02 12 41.36 +23 10 36.7 18.8   704 – Lincoln Laboratory ETS, New Mexico MPS 39265
2001 10 18.26501 02 12 40.56 +23 10 30.2 19.2   704 – Lincoln Laboratory ETS, New Mexico MPS 39265
2001 10 18.28093 02 12 39.77 +23 10 24.0 19.1   704 – Lincoln Laboratory ETS, New Mexico MPS 39265
2001 10 18.29683 02 12 38.99 +23 10 17.7 18.9   704 – Lincoln Laboratory ETS, New Mexico MPS 39265
2001 10 18.31271 02 12 38.22 +23 10 12.9 18.9   704 – Lincoln Laboratory ETS, New Mexico MPS 39265
2001 10 20.32259 02 11 02.59 +22 57 02.0 18.0   704 – Lincoln Laboratory ETS, New Mexico MPS 40303
2001 10 20.33917 02 11 01.77 +22 56 55.4 18.4   704 – Lincoln Laboratory ETS, New Mexico MPS 40303
2001 10 20.37258 02 11 00.13 +22 56 41.4 18.0   704 – Lincoln Laboratory ETS, New Mexico MPS 40303
2001 10 20.38852 02 10 59.36 +22 56 35.6 18.7   704 – Lincoln Laboratory ETS, New Mexico MPS 40303
2001 10 21.25329 02 10 18.02 +22 50 43.6 18.3   704 – Lincoln Laboratory ETS, New Mexico MPS 40303
2001 10 21.26950 02 10 17.21 +22 50 37.3 18.5   704 – Lincoln Laboratory ETS, New Mexico MPS 40303
2001 10 21.28739 02 10 16.32 +22 50 30.1 18.4   704 – Lincoln Laboratory ETS, New Mexico MPS 40303
2001 10 21.30391 02 10 15.49 +22 50 23.5 18.3   704 – Lincoln Laboratory ETS, New Mexico MPS 40303
2001 10 21.32030 02 10 14.67 +22 50 17.1 18.4   704 – Lincoln Laboratory ETS, New Mexico MPS 40303
2001 10 21.32369 02 10 14.52 +22 50 15.7 18.1   704 – Lincoln Laboratory ETS, New Mexico MPS 40303
2001 10 21.34084 02 10 13.66 +22 50 08.9 18.4   704 – Lincoln Laboratory ETS, New Mexico MPS 40303
2001 10 21.35785 02 10 12.83 +22 50 01.5 18.5   704 – Lincoln Laboratory ETS, New Mexico MPS 40303
2001 10 21.37390 02 10 12.04 +22 49 55.7 18.5   704 – Lincoln Laboratory ETS, New Mexico MPS 40303
2001 10 21.39006 02 10 11.38 +22 49 48.1 19.0   704 – Lincoln Laboratory ETS, New Mexico MPS 40303
2001 10 22.28808 02 09 28.00 +22 43 35.7 18.5   704 – Lincoln Laboratory ETS, New Mexico MPS 40303
2001 10 22.28819 02 09 28.06 +22 43 35.7 18.2   704 – Lincoln Laboratory ETS, New Mexico MPS 40303
2001 10 22.28828 02 09 27.90 +22 43 35.3 18.6   704 – Lincoln Laboratory ETS, New Mexico MPS 40303
2001 10 22.28912 02 09 27.94 +22 43 35.3 18.3   704 – Lincoln Laboratory ETS, New Mexico MPS 40303
2001 10 22.30635 02 09 27.09 +22 43 27.9 18.4   704 – Lincoln Laboratory ETS, New Mexico MPS 40303
2001 10 22.30646 02 09 27.15 +22 43 27.7 18.6   704 – Lincoln Laboratory ETS, New Mexico MPS 40303
2001 10 22.30655 02 09 26.99 +22 43 28.0 18.6   704 – Lincoln Laboratory ETS, New Mexico MPS 40303
2001 10 22.30728 02 09 27.01 +22 43 27.4 18.5   704 – Lincoln Laboratory ETS, New Mexico MPS 40303
2001 10 22.32320 02 09 26.27 +22 43 21.4 18.4   704 – Lincoln Laboratory ETS, New Mexico MPS 40303
2001 10 22.32331 02 09 26.31 +22 43 20.9 18.4   704 – Lincoln Laboratory ETS, New Mexico MPS 40303
2001 10 22.32341 02 09 26.24 +22 43 20.4 18.4   704 – Lincoln Laboratory ETS, New Mexico MPS 40303
2001 10 22.32412 02 09 26.18 +22 43 20.6 18.5   704 – Lincoln Laboratory ETS, New Mexico MPS 40303
2001 10 22.34007 02 09 25.38 +22 43 13.9 18.7   704 – Lincoln Laboratory ETS, New Mexico MPS 40303
2001 10 22.34018 02 09 25.47 +22 43 14.4 18.6   704 – Lincoln Laboratory ETS, New Mexico MPS 40303
2001 10 22.34027 02 09 25.32 +22 43 13.7 18.5   704 – Lincoln Laboratory ETS, New Mexico MPS 40303
2001 10 22.34100 02 09 25.37 +22 43 13.9 19.1   704 – Lincoln Laboratory ETS, New Mexico MPS 40303
2001 10 22.35677 02 09 24.51 +22 43 06.8 18.5   704 – Lincoln Laboratory ETS, New Mexico MPS 40303
2001 10 22.35687 02 09 24.54 +22 43 06.5 18.5   704 – Lincoln Laboratory ETS, New Mexico MPS 40303
2001 10 22.35697 02 09 24.44 +22 43 06.2 18.3   704 – Lincoln Laboratory ETS, New Mexico MPS 40303
2001 10 22.35769 02 09 24.50 +22 43 06.7 18.4   704 – Lincoln Laboratory ETS, New Mexico MPS 40303
2001 10 28.23509 02 04 39.49 +21 59 58.0 18.5   704 – Lincoln Laboratory ETS, New Mexico MPS 43677
2001 10 28.26775 02 04 37.82 +21 59 43.9 19.0   704 – Lincoln Laboratory ETS, New Mexico MPS 43677
2001 10 28.28401 02 04 36.98 +21 59 36.0 18.9   704 – Lincoln Laboratory ETS, New Mexico MPS 43677
2001 10 28.30026 02 04 36.21 +21 59 28.6 18.8   704 – Lincoln Laboratory ETS, New Mexico MPS 43677
2001 11 10.33972 01 54 47.28 +20 14 35.9 18.5   644 – Palomar Mountain/NEAT MPS 40303
2001 11 10.35025 01 54 46.82 +20 14 30.9 18.7   644 – Palomar Mountain/NEAT MPS 40303
2001 11 10.36077 01 54 46.39 +20 14 25.5 18.6   644 – Palomar Mountain/NEAT MPS 40303
